Miscellaneous Local Product
Issued by NWS Hastings, NE

Home | Current Version | Previous Version | Text Only | Print | Product List | Glossary On
Versions: 1 2 3 4 5 6 7 8 9 10 11 12 13 14 15 16 17 18 19 20 21 22 23 24 25 26 27 28 29 30 31 32 33 34 35 36 37 38 39 40 41 42 43 44 45 46 47 48 49 50
000
AXUS43 KGID 310802
MISGRI

GID CWA HOURLY WEATHER ROUNDUP
NATIONAL WEATHER SERVICE HASTINGS NE
300 AM CDT THU JUL 31 2014

NOTE: "FAIR" INDICATES FEW OR NO CLOUDS BELOW 12,000 FEET WITH NO
SIGNIFICANT WEATHER AND/OR OBSTRUCTIONS TO VISIBILITY.

...SOUTH CENTRAL NEBRASKA...

CITY           SKY/WX    TMP DP  RH WIND       PRES   REMARKS
GRAND ISLAND   PTCLDY    62  55  77 SW5       30.14F
HASTINGS       CLEAR     62  52  69 CALM      30.14F
KEARNEY        PTCLDY    63  54  72 S8        30.15S
ORD            PTCLDY    63  57  81 S5        30.12F
YORK           CLEAR     55  55 100 SW6       30.13F
AURORA         CLEAR     58  56  94 CALM      30.13F
LEXINGTON      CLEAR     61  56  84 S5        30.15F
HOLDREGE       CLEAR     62  54  75 CALM      30.16S
HEBRON         PTCLDY    54  50  87 CALM      30.14S

...NEBRASKA PANHANDLE...

CITY           SKY/WX    TMP DP  RH WIND       PRES   REMARKS
CHADRON        CLOUDY    61  51  70 CALM      30.17S
ALLIANCE       MOCLDY    55  53  93 W6        30.20F
SCOTTSBLUFF    CLOUDY    61  58  90 N3        30.21F
SIDNEY         CLOUDY    57  54  89 W8        30.25F

...WESTERN AND NORTH CENTRAL NEBRASKA...

CITY           SKY/WX    TMP DP  RH WIND       PRES   REMARKS
VALENTINE      PTCLDY    58  51  78 W5        30.09S
AINSWORTH      PTCLDY    63  55  73 S7        30.10S
ONEILL         PTCLDY    64  59  85 SE7       30.11F
BROKEN BOW     PTCLDY    56  54  93 CALM      30.14F
IMPERIAL       CLEAR     61  57  87 W6        30.20F
NORTH PLATTE   MOCLDY    60  57  89 W3        30.16F
MCCOOK         CLEAR     60  58  92 SW7       30.18F

...EASTERN NEBRASKA...

CITY           SKY/WX    TMP DP  RH WIND       PRES   REMARKS
NORFOLK        CLEAR     58  54  86 CALM      30.11F
SO SIOUX CITY  CLEAR     54  52  93 SE3       30.10F
TEKAMAH        CLEAR     55  51  86 CALM      30.10F
ALBION         PTCLDY    58  55  88 CALM      30.13S
OMAHA EPPLEY   PTCLDY    59  56  89 CALM      30.11S
OFFUTT AFB     PTCLDY    56  56 100 CALM      30.10F
MILLARD        CLEAR     60  58  92 CALM      30.11S
LINCOLN        PTCLDY    55  52  89 CALM      30.13S
NEBRASKA CITY  CLEAR     63  55  76 SW3       30.11S
BEATRICE       CLEAR     56  53  91 CALM      30.13S
FALLS CITY     CLEAR     58  55  90 CALM      30.10S

...NORTHERN KANSAS...

CITY           SKY/WX    TMP DP  RH WIND       PRES   REMARKS
GOODLAND       PTCLDY    58  55  90 W7        30.25F
HILL CITY      PTCLDY    58  53  84 CALM      30.17F
NORTON         SUNNY     59  52  77 CALM      30.17S
PHILLIPSBURG   CLEAR     63  57  82 CALM      30.16F
SMITH CENTER   CLEAR     57  55  94 CALM      30.16S
HAYS           PTCLDY    59  54  82 W5        30.16F
RUSSELL        PTCLDY    61  58  90 W7        30.14F
CONCORDIA      PTCLDY    56  54  93 CALM      30.13S
SALINA         MOCLDY    62  57  83 NW5       30.14S
TOPEKA         PTCLDY    59  56  89 CALM      30.11S



USA.gov is the U.S. government's official web portal to all federal, state and local government web resources and services.